Location: Crocus Hill
(18.2167°N, 63.0667°W)
Time: 03:57:00
(UTC+00:00)

Cosmos 1174 - Pass Details

Date: 26 January 2020
Orbit: 376 x 1144 km, 66.1° (Epoch: 16 February)

Event Time Altitude Azimuth Distance (km) Brightness Sun altitude
Rises 09:45:35 0° 201° (SSW) 3,356 7.8 -14.7°
Reaches altitude 10° 09:48:17 10° 201° (SSW) 2,291 6.9 -14.1°
Maximum altitude 09:53:27 88° 118° (ESE) 643 4.1 -12.9°
Drops below altitude 10° 09:57:32 10° 23° (NNE) 1,819 6.6 -11.9°
Sets 09:59:29 0° 23° (NNE) 2,613 7.4 -11.5°
